Regional Weather Roundup
Issued by NWS

Home | Current Version | Previous Version | Text Only | Print | Product List | Glossary Off
Versions: 1 2 3 4 5 6 7 8 9 10 11 12 13 14 15 16 17 18 19 20 21 22 23 24 25 26 27 28 29 30 31 32 33 34 35 36 37 38 39 40 41 42 43 44 45 46 47 48 49 50

000
ASUS45 KABQ 180001
RWRNM
WEATHER ROUNDUP FOR NEW MEXICO
NATIONAL WEATHER SERVICE ALBUQUERQUE NM
500 PM MST WED DEC 17 2014

NOTE: "FAIR" MEANS FEW OR NO CLOUDS BELOW 12,000 FEET AGL WITH NO
       SIGNIFICANT WEATHER OR OBSTRUCTIONS TO VISION.

      THIS PRODUCT IS RELEASED AS TWO VERSIONS.  ONE VERSION NEAR
      THE TOP OF THE HOUR CONTAINING PRELIMINARY DATA FROM ALBUQUERQUE
      AND OTHER STATIONS.  A FINAL VERSION WITH ADDITIONAL DATA IS
      ISSUED ABOUT 10 MINUTES AFTER THE HOUR.

NMZ501-503-504-510>518-180100-
NORTHWEST PLATEAU/NORTHCENTRAL MOUNTAINS

CITY           SKY/WX    TMP DP  RH WIND       PRES   REMARKS
FARMINGTON     LGT RAIN  36  33  89 W5        29.99R WCI  32
6HR MIN TEMP:  36; 6HR MAX TEMP:  43; 6HR PCP:  0.03;

SANTA FE       CLOUDY    33  32  96 W6        29.98R WCI  28
6HR MIN TEMP:  32; 6HR MAX TEMP:  34; 6HR PCP:  0.10;

TAOS           MOCLDY    30  27  86 CALM      29.98R

$$
NMZ402-403-502-505>509-180100-
WESTCENTRAL MOUNTAINS/SOUTHWEST MOUNTAINS

CITY           SKY/WX    TMP DP  RH WIND       PRES   REMARKS
GALLUP         CLOUDY    35  29  78 SW10      30.02R WCI  27
6HR MIN TEMP:  34; 6HR MAX TEMP:  36; 6HR PCP:  0.02;

GRANTS         LGT SNOW  33  31  92 W7G20     30.02S WCI  27
SILVER CITY    MOCLDY    41  36  81 W10       30.10R

$$
NMZ407-409-411-412-180100-
SOUTHERN DESERTS

CITY           SKY/WX    TMP DP  RH WIND       PRES   REMARKS
LORDSBURG      RAIN      45  41  87 W5        30.10R
DEMING         LGT RAIN  48  40  73 W14       30.08R
6HR MIN TEMP:  46; 6HR MAX TEMP:  57; 6HR PCP:  0.05;

ALAMOGORDO     PTCLDY    50  32  50 SE9       30.03R
T OR C         CLEAR     50  24  36 W13       30.01R
6HR MIN TEMP:  49; 6HR MAX TEMP:  56; 6HR PCP: TRACE;


$$
NMZ519>523-180100-
CENTRAL VALLEYS/CENTRAL HIGHLANDS

CITY           SKY/WX    TMP DP  RH WIND       PRES   REMARKS
ALBUQUERQUE    LGT RAIN  40  38  93 S12       30.00R WCI  33
6HR MIN TEMP:  38; 6HR MAX TEMP:  43; 6HR PCP:  0.02;

DOUBLE EAGLE   LGT RAIN  36  34  93 N3        30.00R
MORIARTY ARPT  DRIZZLE   37  33  87 W9        30.00R WCI  30
6HR MIN TEMP:  36; 6HR MAX TEMP:  47;

CLINES CORNERS PTCLDY    34  30  85 W22G28    29.94R WCI  22
6HR MIN TEMP:  33; 6HR MAX TEMP:  38; 6HR PCP:  0.03;

BELEN          CLOUDY    39  38  94 SW3       30.01F
6HR MIN TEMP:  38; 6HR MAX TEMP:  47;

SOCORRO        FAIR      50  32  51 CALM      30.00R
6HR MIN TEMP:  41; 6HR MAX TEMP:  55;


$$
NMZ524>526-539-540-180100-
SOUTHCENTRAL MOUNTAINS

CITY           SKY/WX    TMP DP  RH WIND       PRES   REMARKS
RUIDOSO        MOCLDY    37  30  75 SW18G26   30.03R WCI  27

$$
NMZ527>531-180100-
NORTHEAST HIGHLANDS/NORTHEAST PLAINS

CITY           SKY/WX    TMP DP  RH WIND       PRES   REMARKS
LAS VEGAS      PTCLDY    36  25  64 SW12      29.91R WCI  28
6HR MIN TEMP:  36; 6HR MAX TEMP:  46;

RATON          MOCLDY    37  25  61 W3        29.89R
6HR MIN TEMP:  30; 6HR MAX TEMP:  41;

CLAYTON        CLOUDY    42  29  59 S5        29.89R
6HR MIN TEMP:  39; 6HR MAX TEMP:  46; 6HR PCP:  0.02;


$$
NMZ532>537-180100-
EASTCENTRAL PLAINS

CITY           SKY/WX    TMP DP  RH WIND       PRES   REMARKS
TUCUMCARI      PTCLDY    50  31  48 SW8       29.88S
6HR MIN TEMP:  50; 6HR MAX TEMP:  58;

CANNON AFB     NOT AVBL
CLOVIS AIRPORT CLEAR     46  28  49 SW9       29.93R

$$
NMZ028-029-538-180100-
SOUTHEAST PLAINS

CITY           SKY/WX    TMP DP  RH WIND       PRES   REMARKS
ROSWELL        PTCLDY    56  29  35 SW9       29.95R
6HR MIN TEMP:  48; 6HR MAX TEMP:  63;

ARTESIA        CLEAR     55  30  38 W20G28    29.98R
CARLSBAD       CLEAR     59  29  31 W21G26    29.96R
6HR MIN TEMP:  53; 6HR MAX TEMP:  66;

HOBBS          CLEAR     55  28  35 SW13      29.98R


$$


USA.gov is the U.S. government's official web portal to all federal, state and local government web resources and services.